St. Cloud, MN

10:39 AM CDT on March 27, 2017 (GMT -0500)
Saint Cloud Regional

Weather History for KSTC - March, 2013

Change the Weather History Date:

Sunday, March 31, 2013

  Actual Average Record
Temperature  
Mean Temperature 27 °F 37 °F  
Max Temperature 35 °F 47 °F 78 °F (1986)
Min Temperature 18 °F 26 °F -2 °F (1969)
Degree Days  
Heating Degree Days 38 28  
Month to date heating degree days 1328 1102  
Since 1 July heating degree days 7598 7550  
Cooling Degree Days 0 0  
Month to date cooling degree days 0 0  
Year to date cooling degree days 0 0  
Moisture  
Dew Point 22 °F    
Average Humidity 69    
Maximum Humidity 92    
Minimum Humidity 45    
Precipitation  
Precipitation 0.00 in 0.07 in 1.30 in (1896)
Month to date precipitation 2.63 1.55  
Year to date precipitation 4.41 2.79  
Snow  
Snow 0.00 in 0.20 in 6.30 in (2009)
Month to date snowfall 16.6 8.5  
Since 1 July snowfall 54.1 42.7  
Snow Depth 6.00 in    
Sea Level Pressure  
Sea Level Pressure 29.94 in    
Wind  
Wind Speed 16 mph (WNW)    
Max Wind Speed 28 mph    
Max Gust Speed 33 mph    
Visibility 8 miles    
Events      
T = Trace of Precipitation, MM = Missing Value Source: NWS Daily Summary

Daily Weather History Graph

Daily Weather History Graph

Search for Another Location

Airport or City:

Trip Planner

Search our weather history database for the weather conditions in past years. The results will help you decide how hot, cold, wet, or windy it might be!

Date:

Astronomy

Mar. 31, 2013 Rise Set
Actual Time 6:57 AM CDT 7:43 PM CDT
Civil Twilight 6:27 AM CDT 8:13 PM CDT
Nautical Twilight 5:52 AM CDT 8:49 PM CDT
Astronomical Twilight 5:15 AM CDT 9:26 PM CDT
Moon 12:02 AM CDT (3/31) 9:33 AM CDT (3/31)
Length of Visible Light 13h 45m
Length of Day
12h 45m
Waning Gibbous, 77% of the Moon is Illuminated
Mar 31
Waning Gibbous
Apr 2
Last Quarter
Apr 10
New
Apr 18
First Quarter
Apr 25
Full

Hourly Weather History & Observations

Time (CDT) Temp. Windchill Dew Point Humidity Pressure Visibility Wind Dir Wind Speed Gust Speed Precip Events Conditions
12:53 AM 33.1 °F 23.4 °F 28.9 °F 85% 29.91 in 5.0 mi WNW 13.8 mph - N/A   Overcast
1:53 AM 32.0 °F 22.1 °F 28.9 °F 88% 29.90 in 4.0 mi WNW 13.8 mph - N/A   Overcast
2:53 AM 30.9 °F 22.2 °F 28.0 °F 89% 29.88 in 4.0 mi West 10.4 mph - N/A   Scattered Clouds
3:01 AM 30.2 °F 19.8 °F 28.4 °F 93% 29.83 in 4.0 mi West 13.8 mph - N/A   Scattered Clouds
3:19 AM 30.2 °F 19.8 °F 28.4 °F 93% 29.83 in 4.0 mi West 13.8 mph - N/A   Mostly Cloudy
3:53 AM 30.9 °F 22.2 °F 28.9 °F 92% 29.87 in 4.0 mi West 10.4 mph - N/A   Overcast
4:53 AM 32.0 °F 24.8 °F 28.9 °F 88% 29.85 in 5.0 mi West 8.1 mph - N/A   Overcast
5:26 AM 32.0 °F 24.8 °F 28.4 °F 87% 29.79 in 5.0 mi West 8.1 mph - N/A   Overcast
5:53 AM 32.0 °F 24.2 °F 28.9 °F 88% 29.84 in 5.0 mi West 9.2 mph - N/A   Overcast
6:21 AM 33.8 °F 25.3 °F 28.4 °F 81% 29.78 in 6.0 mi West 11.5 mph - N/A   Overcast
6:48 AM 33.8 °F 25.8 °F 30.2 °F 87% 29.78 in 6.0 mi West 10.4 mph - N/A   Overcast
6:53 AM 33.1 °F 24.9 °F 30.0 °F 89% 29.83 in 6.0 mi WNW 10.4 mph - N/A   Overcast
7:53 AM 33.1 °F 23.4 °F 28.9 °F 85% 29.84 in 5.0 mi WNW 13.8 mph - N/A   Overcast
8:53 AM 34.0 °F 24.2 °F 28.0 °F 79% 29.86 in 7.0 mi NW 15.0 mph 24.2 mph N/A   Overcast
9:53 AM 34.0 °F 22.4 °F 27.0 °F 75% 29.87 in 7.0 mi WNW 20.7 mph - N/A   Overcast
10:53 AM 34.0 °F 23.4 °F 21.0 °F 59% 29.90 in 10.0 mi NNW 17.3 mph 29.9 mph N/A   Partly Cloudy
11:53 AM 33.1 °F 21.9 °F 19.9 °F 59% 29.93 in 10.0 mi NW 18.4 mph 27.6 mph N/A   Mostly Cloudy
12:53 PM 33.1 °F 21.2 °F 15.1 °F 48% 29.95 in 10.0 mi NNW 20.7 mph 27.6 mph N/A   Clear
1:53 PM 32.0 °F 19.8 °F 14.0 °F 48% 29.97 in 10.0 mi NW 20.7 mph 26.5 mph N/A   Clear
2:53 PM 32.0 °F 20.1 °F 17.1 °F 54% 29.98 in 10.0 mi NW 19.6 mph 28.8 mph N/A   Clear
3:53 PM 32.0 °F 19.8 °F 18.0 °F 56% 29.99 in 10.0 mi WNW 20.7 mph - N/A   Clear
4:53 PM 30.9 °F 19.1 °F 18.0 °F 59% 30.00 in 10.0 mi NW 18.4 mph 29.9 mph N/A   Clear
5:53 PM 30.9 °F 18.4 °F 17.1 °F 57% 30.02 in 10.0 mi NW 20.7 mph 28.8 mph N/A   Clear
6:53 PM 28.0 °F 14.9 °F 16.0 °F 61% 30.05 in 10.0 mi NW 19.6 mph - N/A   Clear
7:53 PM 25.0 °F 11.3 °F 14.0 °F 63% 30.08 in 10.0 mi NW 18.4 mph 27.6 mph N/A   Clear
8:53 PM 23.0 °F 8.3 °F 14.0 °F 68% 30.11 in 10.0 mi NW 19.6 mph - N/A   Clear
9:53 PM 21.0 °F 7.1 °F 12.9 °F 71% 30.14 in 10.0 mi NW 16.1 mph 23.0 mph N/A   Clear
10:53 PM 19.9 °F 6.7 °F 12.0 °F 71% 30.17 in 10.0 mi NW 13.8 mph 23.0 mph N/A   Clear
11:53 PM 19.0 °F 5.6 °F 10.9 °F 71% 30.18 in 10.0 mi NW 13.8 mph - N/A   Clear